Regional Weather Roundup
Issued by NWS Jackson, KY

Home | Current Version | Previous Version | Text Only | Print | Product List | Glossary On
Versions: 1 2 3 4 5 6 7 8 9 10 11 12 13 14 15 16 17 18 19 20 21 22 23 24 25 26 27 28
000
ASUS43 KJKL 310710
RWRJKL

EAST KENTUCKY HOURLY WEATHER ROUNDUP
NATIONAL WEATHER SERVICE JACKSON KY
300 AM EDT SAT JUL 31 2021

NOTE: "FAIR" INDICATES FEW OR NO CLOUDS BELOW 12,000 FEET WITH
NO SIGNIFICANT WEATHER AND/OR OBSTRUCTIONS TO VISIBILITY.

* THESE REPORTS ARE NOT UNDER NWS QUALITY CONTROL AND MAY NOT
  REPORT WEATHER SUCH AS PRECIPITATION AND FOG.

KYZ079-080-083-085-087-088-110-112-115-119-120-310800
...EASTERN KENTUCKY...

CITY           SKY/WX    TMP DP  RH WIND       PRES   REMARKS
JACKSON        CLEAR     70  62  76 CALM      30.04F
LONDON         MOCLDY    68  67  96 CALM      30.03F
SOMERSET*      PTCLDY    66  61  82 CALM      30.04F HAZE
MONTICELLO*    FOG       65  65 100 CALM      30.05F VSB 1/4
WILLIAMSBURG*  CLOUDY    64  64 100 CALM      30.04S VSB<1/4
MIDDLESBORO*   PTCLDY    67  67 100 CALM      30.04F
HARLAN APT*    CLOUDY    67  67 100 CALM      30.05F VSB<1/4
PIKE CO APT*     N/A     68  63  84 CALM      30.04F
BIG SANDY APT* SUNNY     65  65 100 CALM      30.03F
ASHLAND*       MOCLDY    68  67  96 CALM      30.03F
$$

KYZ035-036-041-042-044-050-067-078-099-310800
...CENTRAL KENTUCKY...

CITY           SKY/WX    TMP DP  RH WIND       PRES   REMARKS
MT STERLING*   CLEAR     68  64  88 NE3       30.05F
FLEMING/MASON* PTCLDY    68  63  84 NE5       30.05F
DANVILLE*      PTCLDY    66  63  88 CALM      30.03F
LEXINGTON      CLEAR     66  61  84 N3        30.03F
FRANKFORT      CLEAR     67  63  87 N3        30.02F
LOUISVILLE     PTCLDY    71  62  73 N7        30.03F
GLASGOW*       MOCLDY    66  66 100 CALM      30.02F FOG
BOWLING GREEN  PTCLDY    72  67  84 CALM      30.02F
$$

KYZ091>093-OHZ055-061-077-WVZ005-015-034-035-042-310800
...SOUTHERN OHIO/WEST VIRGINIA...

CITY           SKY/WX    TMP DP  RH WIND       PRES   REMARKS
COVINGTON      MOCLDY    68  60  75 N7        30.05S
COLUMBUS       CLOUDY    67  57  70 E6        30.04F
DAYTON         CLOUDY    68  57  68 N3        30.07F
WILMINGTON     MOCLDY    65  61  87 NE6       30.06S
HUNTINGTON     MOCLDY    67  65  93 CALM      30.02F FOG
CHARLESTON     MOCLDY    65  64  97 CALM      30.02F
PINEVILLE*     CLEAR     64  62  94 MISG      30.09F FOG
BECKLEY        PTCLDY    62  59  90 CALM      30.08F
BLUEFIELD      CLEAR     62  59  90 CALM      30.09F
LOGAN CO APT*    N/A     66  66 100 CALM      30.04F
$$

VAZ002-007-008-TNZ017-027-036-066-071-310800
...SOUTHWEST VIRGINIA/EAST TENNESSEE...

CITY           SKY/WX    TMP DP  RH WIND       PRES   REMARKS
WISE*          CLEAR     63  61  94 CALM      30.11F
JONESVILLE*    CLOUDY    66  59  77 CALM      30.04F
ABINGDON*      CLEAR     65  61  87 CALM      30.06F
BRISTOL        CLEAR     68  65  90 E3        30.03F
SEVIERVILLE*   CLOUDY    70  70 100 NE3       29.99F FOG
KNOXVILLE      PTCLDY    75  70  84 N3        29.99F
LAFOLLETTE*    CLOUDY    68  68 100 CALM        N/A  FOG
OAK RIDGE      PTCLDY    73  70  90 CALM      30.01F
CROSSVILLE     MOCLDY    69  68  96 CALM      30.06F FOG
NASHVILLE      MOCLDY    77  69  76 N5        30.02F
$$

...KEY TO REMARKS...
VSB - VISIBILITY IN MILES
WCI - WIND CHILL INDEX
HX  - HEAT INDEX

$$



USA.gov is the U.S. government's official web portal to all federal, state and local government web resources and services.